This demonstration page uses our WeatherBlox Daily Observations layout. Learn more.

Left ArrowRight Arrow

Hourly Observations for June 16, 2020

Temp ( °F °C ) Dew Point ( °F °C ) Humidity (%) Winds ( mph kmh ) Pressure ( in mb ) Visibility ( mi km ) Precip ( " mm )
12:53 am 00:53 Clear 76 24.4 46 7.8 35 35 SE 9 15 29.96 1015 10 16 0.00 0.00
1:53 am 01:53 Clear 74 23.3 47 8.3 38 38 SE 8 13 29.96 1015 10 16 0.00 0.00
2:53 am 02:53 Clear 73 22.8 53 11.7 50 50 SE 8 13 29.95 1014 10 16 0.00 0.00
3:53 am 03:53 Clear 72 22.2 55 12.8 55 55 SE 13 20 29.94 1014 10 16 0.00 0.00
4:53 am 04:53 Clear 71 21.7 58 14.4 63 63 ESE 9 15 29.95 1014 10 16 0.00 0.00
5:53 am 05:53 Clear 70 21.1 60 15.6 71 71 ESE 12 19 29.96 1015 10 16 0.00 0.00
6:53 am 06:53 Sunny 70 21.1 61 16.1 73 73 ESE 12 19 29.96 1015 10 16 0.00 0.00
7:53 am 07:53 Sunny 72 22.2 63 17.2 73 73 SE 17 28 29.97 1015 10 16 0.00 0.00
8:53 am 08:53 Mostly Sunny 74 23.3 63 17.2 69 69 SE 23 37 29.97 1015 10 16 0.00 0.00
9:53 am 09:53 Mostly Sunny 78 25.6 62 16.7 58 58 SE 20 31 29.97 1015 10 16 0.00 0.00
10:53 am 10:53 Mostly Sunny 82 27.8 61 16.1 49 49 SSE 18 30 29.96 1015 10 16 0.00 0.00
11:53 am 11:53 Mostly Sunny 84 28.9 60 15.6 44 44 SE 21 33 29.94 1014 10 16 0.00 0.00
12:53 pm 12:53 Sunny 88 31.1 58 14.4 36 36 SSE 16 26 29.92 1013 10 16 0.00 0.00
1:53 pm 13:53 Sunny 91 32.8 55 12.8 30 30 SSE 12 19 29.89 1012 10 16 0.00 0.00
2:53 pm 14:53 Sunny 93 33.9 52 11.1 25 25 SE 9 15 29.86 1011 10 16 0.00 0.00
3:53 pm 15:53 Sunny 94 34.4 52 11.1 24 24 VRB 7 11 29.83 1010 10 16 0.00 0.00
4:53 pm 16:53 Sunny 94 34.4 50 10 22 22 VRB 6 9 29.80 1009 10 16 0.00 0.00
5:53 pm 17:53 Sunny 95 35 51 10.6 23 23 S 13 20 29.78 1009 10 16 0.00 0.00
6:53 pm 18:53 Sunny 96 35.6 52 11.1 23 23 SSE 14 22 29.76 1008 10 16 0.00 0.00
7:53 pm 19:53 Sunny 93 33.9 55 12.8 28 28 SSE 18 30 29.77 1008 10 16 0.00 0.00
8:53 pm 20:53 Sunny 89 31.7 54 12.2 30 30 SSE 21 33 29.78 1009 10 16 0.00 0.00
9:53 pm 21:53 Clear 87 30.6 54 12.2 32 32 SSE 16 26 29.80 1009 10 16 0.00 0.00
10:53 pm 22:53 Clear 85 29.4 56 13.3 37 37 SSE 20 31 29.82 1010 10 16 0.00 0.00
11:53 pm 23:53 Clear 83 28.3 55 12.8 38 38 SSE 15 24 29.83 1010 10 16 0.00 0.00

Powered by AerisWeather